Location: Unspecified
(43.4680°N, 87.1740°E)
Time: 19:51:40
(UTC+00:00)

OE (NEXTSAT) - Pass Details

Date: 17 April 2021
Orbit: 425 x 433 km, 46.0° (Epoch: 12 May)

Event Time Altitude Azimuth Distance (km) Brightness Sun altitude
Exits shadow 21:54:40 36° 226° (SW) 694 4.8 -15.7°
Maximum altitude 21:55:51 66° 157° (SSE) 474 4.4 -15.5°
Drops below altitude 10° 21:59:17 10° 75° (ENE) 1,527 8.3 -14.9°
Sets 22:01:24 0° 72° (ENE) 2,394 9.7 -14.6°
